This demonstration page uses our WeatherBlox Daily Observations layout. Learn more.

40.92945, -100.16068

Hourly Observations for May 2, 2018

Temp ( °F °C ) Dew Point ( °F °C ) Humidity (%) Winds ( mph kmh ) Pressure ( in mb ) Visibility ( mi km ) Precip ( " mm )
12:15 am 00:15 Clear 53 11.5 47 8.5 82 82 NNE 13 20 29.8 1009 10 16.0934 0 0
12:35 am 00:35 Clear 52 11.3 47 8.5 83 83 NNE 9 15 29.83 1010 10 16.0934 0 0
12:55 am 00:55 Clear 52 11.1 47 8.5 84 84 NNE 10 17 29.85 1011 10 16.0934 0 0
1:15 am 01:15 Clear 51 10.7 46 8 84 84 N 12 19 29.85 1011 10 16.0934 0 0
1:35 am 01:35 Clear 51 10.6 46 8 84 84 NNE 8 13 29.85 1011 10 16.0934 0 0
1:55 am 01:55 Clear 51 10.6 46 8 84 84 N 6 9 29.88 1012 10 16.0934 0 0
2:15 am 02:15 Partly Cloudy 50 10 46 7.8 86 86 N 6 9 29.85 1011 10 16.0934 0 0
2:35 am 02:35 Partly Cloudy 49 9.7 46 7.6 87 87 NNW 6 9 29.88 1012 10 16.0934 0 0
2:55 am 02:55 Clear 49 9.3 45 7.3 87 87 N 6 9 29.88 1012 10 16.0934 0 0
3:15 am 03:15 Clear 49 9.2 45 7 86 86 N 7 11 29.88 1012 10 16.0934 0 0
3:35 am 03:35 Clear 47 8.5 44 6.7 89 89 NNW 10 17 29.91 1013 10 16.0934 0 0
3:55 am 03:55 Clear 49 9.3 45 7.1 86 86 NNW 7 11 29.88 1012 10 16.0934 0 0
4:10 am 04:10 Clear 49 9.3 45 7.1 86 86 NNE 6 9 29.88 1012 10 16.0934 0 0
4:35 am 04:35 Partly Cloudy 48 9.1 44 6.9 86 86 N 6 9 29.88 1012 10 16.0934 0 0
4:55 am 04:55 Clear 48 8.7 44 6.5 86 86 NE 5 7 29.91 1013 10 16.0934 0 0
5:15 am 05:15 Clear 48 8.7 44 6.5 86 86 NNE 8 13 29.91 1013 10 16.0934 0 0
5:35 am 05:35 Clear 48 9 44 6.4 84 84 NNE 7 11 29.88 1012 10 16.0934 0 0
5:55 am 05:55 Clear 47 8.5 43 6 84 84 N 6 9 29.91 1013 10 16.0934 0 0
6:15 am 06:15 Clear 46 8 42 5.7 86 86 NE 3 6 29.91 1013 10 16.0934 0 0
6:35 am 06:35 Clear 47 8.3 43 6 86 86 Calm 29.94 1014 10 16.0934 0 0
6:55 am 06:55 Sunny 47 8.5 43 6.1 85 85 N 3 6 29.94 1014 10 16.0934 0 0
7:15 am 07:15 Sunny 48 8.7 43 6.3 85 85 NNE 3 6 29.94 1014 10 16.0934 0 0
7:35 am 07:35 Sunny 49 9.2 44 6.8 85 85 NE 6 9 29.91 1013 10 16.0934 0 0
7:55 am 07:55 Mostly Cloudy 49 9.5 45 7.2 86 86 NNE 6 9 29.94 1014 10 16.0934 0 0
8:15 am 08:15 Cloudy 50 9.8 45 7.3 85 85 N 10 17 29.94 1014 10 16.0934 0 0
8:35 am 08:35 Cloudy 50 10 45 7.4 84 84 NNE 10 17 29.94 1014 10 16.0934 0 0
8:55 am 08:55 Cloudy 50 10.2 45 7.4 83 83 NE 14 22 29.91 1013 10 16.0934 0 0
9:15 am 09:15 Cloudy 51 10.7 46 7.6 81 81 N 6 9 29.94 1014 10 16.0934 0 0
9:35 am 09:35 Cloudy 53 11.5 47 8.4 81 81 NNE 15 24 29.94 1014 10 16.0934 0 0
9:55 am 09:55 Cloudy 54 12.2 48 8.9 80 80 NE 18 30 29.91 1013 10 16.0934 0 0
10:15 am 10:15 Mostly Cloudy 55 12.9 49 9.2 78 78 NE 17 28 29.88 1012 10 16.0934 0 0
10:35 am 10:35 Partly Cloudy 56 13.2 48 8.9 75 75 NE 20 31 29.85 1011 10 16.0934 0 0
10:55 am 10:55 Mostly Cloudy 57 13.8 47 8.6 71 71 NE 14 22 29.88 1012 10 16.0934 0 0
11:15 am 11:15 Mostly Cloudy 57 13.9 46 8 68 68 ENE 8 13 29.91 1013 10 16.0934 0 0
11:35 am 11:35 Cloudy 57 13.9 46 7.7 66 66 NE 8 13 29.94 1014 10 16.0934 0 0
11:55 am 11:55 Cloudy 58 14.2 46 7.6 65 65 ENE 8 13 29.94 1014 10 16.0934 0 0
12:15 pm 12:15 Cloudy 58 14.5 46 7.5 63 63 ENE 12 19 29.91 1013 10 16.0934 0 0
12:35 pm 12:35 Cloudy 58 14.5 45 7.2 62 62 ENE 10 17 29.91 1013 10 16.0934 0 0
12:55 pm 12:55 Cloudy 59 15 45 7.2 60 60 ENE 13 20 29.91 1013 10 16.0934 0 0
1:15 pm 13:15 Cloudy 59 14.8 45 7.2 61 61 ENE 13 20 29.91 1013 10 16.0934 0 0
1:35 pm 13:35 Cloudy 59 15.1 45 7 59 59 NE 13 20 29.88 1012 10 16.0934 0 0
1:55 pm 13:55 Cloudy 60 15.3 44 6.8 57 57 NE 14 22 29.88 1012 10 16.0934 0 0
2:15 pm 14:15 Cloudy 60 15.5 44 6.7 56 56 NE 16 26 29.88 1012 10 16.0934 0 0
2:35 pm 14:35 Cloudy 61 16 45 7.4 57 57 NE 18 30 29.83 1010 10 16.0934 0 0
2:55 pm 14:55 Cloudy 60 15.8 45 7 56 56 ENE 13 20 29.85 1011 10 16.0934 0 0
3:15 pm 15:15 Cloudy 61 16 44 6.6 54 54 ENE 16 26 29.83 1010 10 16.0934 0 0
3:35 pm 15:35 Cloudy 61 15.9 44 6.6 54 54 E 16 26 29.85 1011 10 16.0934 0 0
3:55 pm 15:55 Cloudy 62 16.6 45 7.1 54 54 ENE 17 28 29.83 1010 10 16.0934 0 0
4:15 pm 16:15 Cloudy 62 16.8 44 6.9 52 52 ENE 20 31 29.83 1010 10 16.0934 0 0
4:35 pm 16:35 Cloudy 63 17.1 45 7.3 53 53 ENE 22 35 29.8 1009 10 16.0934 0 0
4:55 pm 16:55 Mostly Cloudy 64 17.5 45 7.3 51 51 ENE 21 33 29.77 1008 10 16.0934 0 0
5:15 pm 17:15 Mostly Cloudy 64 17.5 45 7.3 51 51 E 22 35 29.77 1008 10 16.0934 0 0
5:35 pm 17:35 Cloudy 62 16.5 44 6.5 52 52 E 16 26 29.8 1009 10 16.0934 0 0
5:55 pm 17:55 Cloudy 61 16.2 44 6.7 54 54 E 16 26 29.8 1009 10 16.0934 0 0
6:15 pm 18:15 Cloudy 61 16 44 6.5 54 54 ENE 16 26 29.8 1009 10 16.0934 0 0
6:35 pm 18:35 Cloudy 60 15.6 44 6.6 55 55 ENE 14 22 29.8 1009 10 16.0934 0 0
6:55 pm 18:55 Cloudy 60 15.7 44 6.7 55 55 E 15 24 29.8 1009 10 16.0934 0 0
7:15 pm 19:15 Cloudy 60 15.3 44 6.8 57 57 E 20 31 29.8 1009 10 16.0934 0 0
7:35 pm 19:35 Cloudy 59 15 44 6.9 59 59 E 16 26 29.8 1009 10 16.0934 0 0
7:55 pm 19:55 Cloudy 58 14.6 45 7.1 61 61 ENE 13 20 29.83 1010 10 16.0934 0 0
8:15 pm 20:15 Cloudy 58 14.5 45 7.2 62 62 ENE 15 24 29.83 1010 10 16.0934 0 0
8:35 pm 20:35 Cloudy 58 14.5 45 7 61 61 ENE 13 20 29.83 1010 10 16.0934 0 0
8:55 pm 20:55 Cloudy 58 14.4 44 6.6 60 60 ENE 12 19 29.83 1010 10 16.0934 0 0
9:15 pm 21:15 Cloudy 57 14.1 44 6.5 60 60 ENE 10 17 29.83 1010 10 16.0934 0 0
9:35 pm 21:35 Cloudy 57 14 44 6.8 62 62 ENE 8 13 29.85 1011 10 16.0934 0 0
9:55 pm 21:55 Cloudy 57 13.8 44 6.8 63 63 NE 9 15 29.85 1011 10 16.0934 0 0
10:15 pm 22:15 Cloudy 56 13.6 45 7 65 65 NE 9 15 29.85 1011 10 16.0934 0 0
10:35 pm 22:35 Cloudy 56 13.5 44 6.6 63 63 ENE 10 17 29.85 1011 10 16.0934 0 0
10:55 pm 22:55 Cloudy 56 13.1 44 6.8 66 66 ENE 6 9 29.88 1012 10 16.0934 0 0
11:15 pm 23:15 Cloudy 55 13 45 7 67 67 NE 3 6 29.88 1012 10 16.0934 0 0
11:35 pm 23:35 Cloudy 55 13 45 7.3 69 69 NE 6 9 29.88 1012 10 16.0934 0 0
11:55 pm 23:55 Cloudy 55 12.7 45 7.1 69 69 ENE 7 11 29.88 1012 10 16.0934 0 0

Powered by AerisWeather